Location: Unspecified
(0.0000°N, 0.0000°E)
Time: 21:56:39
(UTC+00:00)

Vela 2A - Pass Details

Date: 02 December 2021
Orbit: 18140 x 188451 km, 32.5° (Epoch: 20 January)

Event Time Altitude Azimuth Distance (km) Brightness Sun altitude
Rises 08:40:48 0° 62° (ENE) 184,695 ? 39.1°
Reaches altitude 10° 09:28:47 10° 61° (ENE) 184,740 ? 49.3°
Maximum altitude 14:53:04 63° 359° (N) 186,186 ? 40.2°
Drops below altitude 10° 20:13:39 10° 296° (WNW) 193,376 ? -33.0°
Sets 21:00:14 0° 295° (WNW) 194,628 ? -43.2°
